Theta_e
312 312 312 311 311 311 311 311 312 312 312 312 313 312 313 313 312 312 312 311 311 310 310 310 310 310 310 311 311 310 310 309 309 310 311 311 311 310 310 310 310 309 309 309 309 308 306 305 305 304 304 303 302 302 301 300 300 298 298 298 296 296 295 293 294 292 291 292 291 288 287 287 287 287 286 286 286 286 286 285 285 285 285 285 285
312 312 311 311 311 311 311 311 311 311 311 311 312 312 312 312 312 312 311 311 311 310 310 310 310 310 310 311 311 310 309 308 308 308 309 310 310 309 309 309 308 309 308 308 308 307 306 305 305 304 304 303 302 302 301 300 299 298 297 297 296 295 294 293 293 290 289 290 289 287 287 287 287 287 287 286 287 286 286 286 285 286 285 285 285
311 311 311 311 311 311 310 311 310 311 311 311 311 311 311 311 311 311 311 311 310 310 309 309 309 310 310 310 310 310 309 308 308 308 309 310 310 310 309 308 308 308 307 307 308 307 306 305 305 304 303 303 302 301 301 300 299 298 297 296 295 294 294 293 292 290 289 288 287 287 287 286 287 287 286 286 286 286 286 286 286 285 285 285 285
310 310 310 310 310 310 310 310 310 310 310 310 311 310 311 311 311 311 311 310 310 309 309 308 309 309 309 309 309 309 309 308 308 308 309 310 310 310 309 307 306 307 306 307 307 306 306 305 305 305 303 302 302 301 300 299 298 297 296 295 294 294 294 293 291 291 290 288 287 287 287 286 286 286 286 286 286 286 285 285 285 285 285 285 284
309 309 309 309 309 309 310 310 310 310 310 310 310 310 310 310 310 310 310 310 310 309 309 308 308 308 308 309 309 309 308 308 307 308 309 309 309 308 308 307 305 305 306 306 306 306 306 305 305 305 303 302 301 300 300 299 298 297 296 295 294 294 294 293 291 291 290 288 287 286 286 286 286 286 286 286 285 285 285 285 285 284 284 285 285
307 308 308 308 308 309 309 310 310 310 310 310 310 310 310 309 309 310 309 309 309 309 308 308 307 308 308 308 308 308 308 308 307 308 308 308 308 308 307 306 305 305 305 305 305 305 305 305 305 304 303 302 301 300 299 298 297 296 295 295 294 294 293 292 291 290 289 288 287 286 286 285 286 285 285 286 286 285 285 284 284 284 285 286 287
307 307 307 306 307 308 309 309 309 310 309 309 309 309 309 308 308 308 308 308 308 308 308 308 307 307 307 308 308 308 308 308 308 308 308 307 307 307 307 306 305 304 304 304 304 304 304 304 304 303 302 302 301 300 299 298 296 295 295 295 294 293 292 291 289 288 288 287 286 286 285 285 285 285 285 285 285 285 284 284 285 286 287 287 288
308 308 307 307 308 308 309 308 308 308 308 308 308 308 308 308 308 307 307 308 308 308 308 307 307 307 307 307 307 307 307 307 307 307 307 307 307 306 306 305 304 304 304 303 303 303 303 302 302 302 302 302 301 300 300 298 296 295 294 294 293 292 290 289 287 287 288 287 286 285 285 284 285 285 285 284 284 284 285 286 287 288 288 287 287
307 307 307 308 308 308 308 307 307 307 307 307 307 307 307 307 307 306 306 307 307 307 307 307 306 306 306 306 306 306 306 306 306 306 306 306 306 306 305 305 304 303 303 303 302 301 301 301 301 301 301 301 301 300 300 299 298 296 294 292 291 289 288 287 287 288 288 286 285 284 284 284 285 285 285 285 285 286 287 287 287 288 288 287 286
305 306 307 308 308 308 307 307 306 306 306 306 306 306 306 306 305 305 306 306 306 306 306 306 305 305 305 305 305 305 305 305 305 305 306 306 306 306 305 305 304 303 302 301 300 300 300 299 299 300 300 300 300 299 299 298 297 297 295 293 290 289 287 287 288 288 287 286 286 286 285 285 286 287 287 287 288 288 288 287 287 287 286 285 285
305 305 306 307 307 307 307 307 306 305 305 305 305 305 305 305 304 304 305 305 305 305 305 304 305 305 304 304 304 304 304 304 305 305 305 305 305 305 304 304 303 301 300 299 298 298 298 298 298 299 299 298 298 297 296 295 294 293 293 292 290 289 289 289 288 287 288 287 287 289 289 288 288 290 289 289 288 288 287 287 286 285 284 283 283
304 304 305 305 305 306 306 306 305 305 305 305 305 304 304 304 304 304 304 304 304 304 303 304 304 304 304 303 303 303 303 303 304 304 304 304 304 304 303 303 302 300 299 298 298 297 297 297 297 297 296 297 296 295 293 292 291 290 291 290 289 289 290 292 290 288 290 291 290 291 291 291 291 291 290 289 288 287 287 286 285 284 283 282 282
303 303 303 303 304 304 304 304 304 304 304 304 304 303 303 303 303 303 303 303 303 302 303 303 303 303 303 303 302 302 302 302 302 303 303 303 303 302 301 300 300 299 299 298 297 296 296 295 295 294 294 294 293 292 291 290 290 289 289 288 288 288 289 291 291 290 292 294 293 292 293 292 292 291 291 290 289 287 286 285 284 283 283 282 282
301 301 301 301 302 302 302 302 302 302 303 303 302 302 302 302 302 302 302 302 302 302 302 302 302 302 302 302 302 302 301 302 301 301 301 301 301 300 299 298 297 297 297 297 296 295 295 294 293 293 293 292 291 291 290 290 288 287 287 287 287 288 288 289 291 292 294 294 293 293 292 292 291 291 290 289 288 287 285 284 283 283 282 282 282
302 301 301 302 301 301 300 300 300 300 301 301 301 301 301 301 301 301 301 301 301 301 301 301 301 301 301 301 301 300 301 301 300 300 300 300 299 299 297 296 296 295 295 295 295 294 294 293 293 292 291 291 290 290 289 288 287 286 286 286 287 288 289 291 292 293 293 293 292 292 291 291 290 289 288 287 286 285 284 284 283 282 282 282 281
302 301 302 302 302 300 299 299 299 300 300 300 300 300 300 300 301 301 300 300 300 300 300 300 300 300 300 300 299 299 299 299 299 299 299 298 298 296 295 294 294 293 293 293 293 293 293 292 291 290 290 290 290 290 288 287 286 285 285 286 287 289 291 292 292 292 292 292 291 290 290 289 289 287 286 286 285 284 283 283 282 282 282 281 281
300 300 300 301 301 300 299 299 299 299 299 299 299 299 300 300 300 300 299 299 299 299 299 299 299 299 299 298 298 298 298 298 298 298 297 297 296 294 293 293 292 292 292 292 292 292 291 291 290 289 289 289 289 287 286 286 286 285 285 286 288 290 291 291 291 291 291 291 290 289 289 288 287 286 285 284 283 283 283 282 282 282 281 281 281
299 298 299 299 299 299 299 298 298 298 298 298 299 299 299 299 299 299 299 298 298 299 298 298 298 298 298 297 297 297 297 297 297 297 296 295 294 293 292 292 291 290 290 290 290 290 290 289 289 288 288 288 287 285 285 286 286 285 286 288 289 290 290 291 291 290 290 289 289 288 287 286 285 284 284 283 283 283 283 282 282 282 281 281 280
297 297 297 298 298 298 298 298 298 297 297 298 298 298 298 298 298 298 298 297 297 297 297 297 297 297 296 296 296 296 296 296 296 296 295 294 293 293 292 291 290 289 288 288 288 288 287 287 287 287 287 287 286 284 285 286 285 285 287 289 289 290 291 291 290 290 289 289 288 286 285 284 284 284 284 283 283 283 282 282 282 281 281 280 280
296 296 296 296 297 298 297 297 297 297 297 297 297 297 297 297 297 297 297 297 297 296 296 295 295 295 295 295 294 294 294 294 294 295 294 293 293 292 291 290 289 288 287 287 286 285 285 285 284 285 285 286 285 284 285 285 285 286 289 291 290 291 291 291 290 290 289 288 286 284 283 283 283 283 283 283 282 282 282 281 281 281 280 279 279
295 296 296 296 296 297 296 296 296 296 296 296 296 297 297 297 297 296 296 296 295 295 294 294 293 293 293 293 293 293 292 293 293 293 293 292 291 291 290 289 288 287 286 286 285 284 284 283 283 284 284 285 285 285 285 285 286 287 290 292 292 292 291 290 289 289 288 286 284 283 283 283 283 282 282 281 281 281 281 281 280 280 279 279 279
295 295 296 296 296 296 296 295 295 296 296 296 296 296 296 296 296 295 295 294 294 293 293 292 291 291 291 291 291 291 291 291 291 291 291 290 290 290 290 289 288 287 286 285 284 284 283 283 284 284 284 284 285 285 284 285 287 289 291 292 292 291 290 289 288 287 285 284 283 282 282 282 282 282 281 281 280 280 280 279 279 279 278 278 278
294 295 295 296 297 296 295 295 294 294 295 295 295 295 295 295 294 294 293 292 292 291 291 290 290 289 289 289 289 289 290 290 290 290 289 289 289 289 289 288 288 287 286 285 284 283 283 283 284 284 283 284 285 285 284 286 289 291 292 292 291 290 289 288 287 285 284 283 282 282 282 282 281 281 280 279 279 278 278 278 278 278 277 277 276
293 294 295 295 296 296 295 294 293 293 294 294 294 294 294 294 293 292 292 291 290 289 289 289 288 288 288 288 288 288 289 289 289 289 289 289 288 288 288 288 287 286 285 285 284 283 283 284 284 283 283 284 285 285 285 287 290 291 291 290 289 288 288 287 285 284 283 283 282 282 282 282 281 280 279 279 278 278 278 277 277 276 276 275 275
292 293 293 294 294 294 294 293 293 292 292 292 292 293 293 292 292 291 291 290 289 288 288 287 287 287 286 286 287 287 288 288 288 288 288 288 287 287 287 287 286 285 285 284 284 284 284 284 284 284 283 283 285 286 287 288 290 290 290 289 288 287 286 285 284 284 283 283 282 282 282 281 280 279 279 278 278 277 277 276 276 275 275 274 274
290 291 292 293 293 292 292 292 292 292 291 291 291 291 291 291 290 290 289 288 288 287 287 287 286 286 286 286 286 286 286 286 286 287 287 286 286 287 287 286 285 285 284 284 284 284 284 284 284 283 283 284 286 287 288 288 289 289 288 287 286 286 285 285 284 284 283 283 282 282 281 280 279 279 278 278 278 277 276 276 275 275 274 274 273
289 290 290 291 292 291 291 291 291 291 291 290 290 290 290 289 289 288 288 287 287 286 286 286 285 285 285 285 285 285 285 285 285 285 285 285 286 287 287 286 285 284 284 284 284 284 283 283 283 283 283 285 287 288 288 288 288 287 286 286 286 286 285 285 285 284 284 283 282 281 280 279 279 278 277 277 277 276 276 275 275 275 274 273 273
289 289 289 290 290 290 290 290 290 290 290 290 289 289 289 288 288 288 288 288 287 286 286 286 285 285 285 285 285 284 284 284 284 284 285 285 286 286 286 285 285 284 284 284 283 283 283 282 283 283 284 286 288 288 287 287 287 286 286 286 285 285 285 285 284 284 283 282 281 280 279 278 278 277 277 276 276 276 275 275 275 274 273 273 272
288 288 289 289 289 289 289 289 289 288 288 289 289 289 289 288 288 288 288 288 288 288 287 287 286 286 286 286 285 284 283 284 284 285 285 285 285 286 286 285 284 284 283 283 282 282 282 283 283 284 285 286 287 286 286 286 286 285 286 285 285 284 284 283 283 282 282 281 280 279 278 277 277 277 276 276 276 276 275 275 274 274 273 272 272
287 287 287 288 288 288 288 288 288 287 287 287 287 288 288 288 287 287 287 287 288 288 287 287 287 286 286 285 285 285 284 284 284 284 285 285 285 285 285 285 284 283 283 282 282 282 283 284 284 285 285 285 285 285 285 285 284 284 284 284 284 283 283 282 282 281 280 279 279 278 277 277 276 276 276 276 276 275 275 274 274 273 272 272 271
285 286 286 287 287 288 288 287 287 287 286 286 286 286 286 287 287 286 286 286 286 287 286 286 286 286 285 285 285 284 284 284 284 284 284 285 286 285 285 284 284 283 283 283 283 283 283 284 284 284 284 284 284 283 283 284 284 283 283 282 282 282 282 281 280 279 279 278 277 277 277 276 276 276 275 275 275 274 274 273 273 272 272 271 270
284 285 285 286 286 287 287 287 286 286 286 285 285 285 284 284 285 285 285 285 285 286 285 285 285 285 285 284 284 284 284 283 283 284 284 285 285 285 284 284 283 283 283 283 283 283 283 283 283 283 283 283 283 283 283 283 283 283 282 281 281 280 280 279 278 278 277 277 277 277 276 276 275 275 275 275 274 274 273 272 272 271 271 270 269
284 284 284 285 285 286 286 286 286 286 285 285 284 284 284 283 284 284 285 285 284 284 284 284 284 284 284 284 284 284 283 283 283 284 284 285 285 285 284 284 284 284 284 283 283 283 283 283 282 282 282 282 282 282 282 283 282 282 282 281 280 279 278 278 278 277 277 277 277 276 275 275 275 275 275 274 274 273 273 272 271 270 270 269 268
283 284 284 284 285 285 285 285 285 285 285 285 284 284 284 284 284 284 284 284 284 284 284 284 284 284 284 284 284 284 283 283 283 284 285 285 285 285 284 284 284 284 284 283 282 282 282 282 282 282 282 282 282 282 282 282 282 281 280 280 279 278 278 277 277 277 277 277 276 275 275 275 274 274 274 274 273 272 272 271 270 270 269 268 267
283 283 283 284 284 284 285 285 285 285 285 285 285 284 284 284 284 284 284 284 284 284 284 284 284 284 284 284 284 283 283 283 283 284 285 285 285 284 284 284 284 284 284 282 282 282 281 281 281 281 281 281 281 282 282 281 281 280 279 279 278 278 277 277 277 277 277 276 275 275 274 274 274 273 273 273 272 271 270 270 269 268 267 267 266
281 282 282 283 283 284 284 285 285 285 285 285 285 285 284 284 284 284 284 284 284 284 284 284 284 284 284 284 283 283 283 283 283 284 285 285 285 284 284 284 284 284 283 282 281 281 281 281 281 281 281 281 281 281 281 281 280 280 279 279 278 277 277 277 277 276 276 275 274 274 273 273 273 272 272 271 270 270 269 268 268 267 266 265 265
280 280 281 281 282 283 284 285 285 285 285 285 285 285 284 284 284 284 284 284 284 284 284 284 284 284 284 283 283 283 283 283 283 284 285 285 285 285 284 284 284 283 282 281 281 281 281 281 281 281 281 281 281 281 281 280 280 279 279 278 278 277 277 276 276 275 275 274 273 273 273 272 272 271 270 269 269 268 267 267 266 265 265 264 264
279 279 280 280 281 282 283 284 285 285 285 285 285 284 284 284 284 284 284 284 284 284 283 284 284 284 283 283 283 283 283 283 283 284 285 285 285 285 284 284 284 283 282 281 281 281 281 280 281 281 281 281 281 281 280 280 279 278 278 278 277 277 276 275 275 274 273 273 272 272 272 271 270 269 269 268 267 267 266 266 265 265 264 264 263
278 279 279 280 281 282 283 284 285 285 285 285 284 284 284 284 283 283 283 283 283 283 283 283 283 283 283 283 283 283 283 283 284 284 285 285 285 285 284 284 283 283 282 281 281 281 281 281 281 281 281 281 280 280 279 279 278 278 278 277 276 276 275 274 273 272 272 271 271 271 271 270 269 268 267 267 266 266 266 265 265 264 264 263 263
278 278 279 280 281 282 283 284 285 285 285 285 284 284 283 283 283 283 283 282 282 282 282 283 283 283 283 283 283 283 283 283 283 284 284 284 284 284 284 283 283 282 282 281 281 281 280 280 280 280 280 279 279 279 278 278 278 277 276 276 275 275 274 273 273 272 271 271 271 271 270 269 268 267 266 266 266 265 265 265 264 264 263 263 263
276 277 278 279 280 281 283 284 284 285 285 285 284 284 283 283 283 282 282 282 282 282 282 282 282 282 283 283 283 283 283 283 283 283 283 283 283 283 283 283 282 282 281 281 280 280 280 279 279 279 279 278 278 278 277 277 276 276 275 274 274 274 273 273 272 272 271 271 271 270 269 268 267 266 266 266 265 265 264 264 264 263 263 263 262
274 276 277 278 279 281 282 283 284 284 285 284 284 283 283 283 282 282 282 281 281 281 281 281 281 281 282 282 283 283 282 282 282 282 282 282 282 282 282 281 281 281 281 281 280 279 279 279 279 278 278 277 276 276 275 275 275 274 274 274 273 273 273 273 272 272 271 270 270 269 267 267 266 266 265 265 265 264 264 264 263 263 262 262 262
273 274 276 277 278 279 281 282 283 284 284 284 284 283 283 282 282 281 281 281 280 280 280 280 280 280 281 281 281 282 281 281 281 280 280 280 280 280 280 280 281 281 280 280 280 279 279 278 278 277 276 275 275 274 274 274 274 274 274 274 273 273 273 272 271 271 270 269 268 267 266 266 265 265 265 264 264 264 264 263 263 262 262 262 262
272 273 274 275 276 278 279 280 282 283 283 283 283 283 282 282 281 281 280 280 279 279 279 278 278 279 279 279 280 280 280 279 279 279 279 279 279 279 279 280 280 280 279 279 279 279 278 278 277 276 275 274 274 274 274 274 274 274 274 273 273 272 271 271 270 269 269 268 267 267 266 265 265 265 264 264 264 263 263 263 262 262 262 262 261
270 271 272 273 275 276 278 279 280 282 282 283 282 282 281 281 280 280 279 279 278 278 278 278 278 278 278 278 278 279 279 279 279 279 279 279 279 279 279 279 279 279 279 278 278 277 277 277 276 275 274 274 274 274 274 273 273 272 272 271 271 270 270 269 268 268 267 267 266 266 265 265 265 264 264 264 263 263 263 262 262 262 261 261 261
268 269 271 272 273 275 276 278 279 280 281 282 281 281 280 280 279 279 278 278 277 277 277 277 277 277 277 277 277 278 279 279 279 279 279 279 278 278 278 278 278 278 278 277 277 276 276 275 275 275 274 274 273 273 272 272 271 270 270 270 269 269 268 268 267 267 266 266 266 265 265 265 264 264 264 263 263 262 262 262 261 261 261 261 261
267 268 270 271 272 274 275 277 278 279 280 281 280 280 279 279 278 278 277 277 277 276 276 275 276 276 276 277 277 278 278 278 278 278 278 278 277 277 277 277 277 277 276 276 275 275 274 274 273 273 273 272 272 271 270 270 270 269 269 269 268 268 268 267 267 266 266 266 265 265 265 264 264 264 263 263 262 262 262 261 261 261 261 260 260
266 267 269 270 272 273 275 276 277 278 279 279 279 279 278 278 277 276 276 276 275 275 275 274 274 275 275 276 276 277 277 277 277 277 277 276 276 276 276 276 275 275 275 274 274 273 273 272 271 271 271 270 270 270 269 269 269 268 268 268 268 267 267 266 266 266 265 265 265 264 264 264 264 263 263 263 262 262 261 261 261 260 260 260 260
266 267 269 270 271 273 274 276 276 277 278 278 278 277 277 276 275 275 274 274 274 274 273 273 272 272 273 273 274 275 275 275 275 275 275 274 274 274 274 274 274 273 273 272 272 271 271 270 270 270 270 269 269 269 269 268 268 268 268 267 267 266 266 266 265 265 265 265 264 264 264 263 263 263 262 262 262 261 261 261 260 260 260 259 259
267 268 269 270 271 272 274 275 275 276 276 277 276 276 275 274 274 273 273 273 272 272 272 271 271 271 271 272 273 273 274 274 274 273 273 273 272 272 272 272 271 271 270 270 270 270 270 269 269 269 269 269 268 268 268 268 267 267 267 266 266 266 266 265 265 265 265 264 264 264 263 263 263 262 262 262 261 261 261 260 260 260 260 259 259
267 268 269 270 271 272 273 274 274 275 275 275 275 274 273 273 272 272 272 272 271 271 271 271 270 270 271 272 272 272 272 272 272 272 272 271 271 271 270 270 269 269 269 269 269 269 269 269 269 268 268 268 268 267 267 267 267 266 266 266 266 265 265 265 265 264 264 264 263 263 263 262 262 262 262 262 261 261 261 260 260 260 259 259 258
Wind_Speed
22 23 24 24 26 27 27 28 27 28 29 30 32 33 34 34 34 34 33 33 32 32 32 32 32 31 30 31 30 30 29 29 30 31 33 36 37 37 37 36 37 38 38 38 38 39 39 39 39 40 40 39 39 40 39 39 39 38 38 37 36 35 32 27 17 10 10 15 16 19 25 24 19 23 29 30 28 25 21 20 19 17 17 16 15
21 21 23 24 25 26 27 28 28 28 29 30 32 33 34 35 34 33 34 34 33 32 33 32 31 31 31 32 31 31 30 30 30 31 32 34 35 36 36 36 37 37 37 37 38 38 38 38 38 39 38 39 39 39 39 38 38 38 38 37 36 36 35 30 21 12 9 14 17 17 20 23 20 20 23 23 21 20 18 18 17 16 16 16 16
22 22 22 23 25 26 27 28 28 29 30 31 32 33 35 35 34 34 34 34 33 33 33 32 32 32 32 33 33 32 32 30 31 32 33 34 35 35 36 37 38 38 38 38 38 38 37 38 38 38 37 38 38 38 38 37 37 36 37 37 36 34 35 31 22 15 13 15 17 17 20 24 20 17 19 18 17 17 16 15 15 15 16 17 18
22 23 24 24 24 25 27 28 29 30 32 33 34 34 34 34 34 34 34 34 34 33 33 32 32 33 34 35 35 34 33 32 31 33 34 36 36 36 37 38 39 39 39 39 38 38 38 38 39 39 38 38 38 38 37 36 35 36 35 35 35 33 33 30 24 19 16 16 17 18 21 24 20 16 17 17 16 15 14 14 15 16 17 18 18
21 23 24 25 25 25 27 28 29 31 32 34 35 35 35 35 35 35 34 34 34 33 33 33 33 34 36 36 36 36 35 33 32 33 35 36 35 36 37 38 39 39 40 39 39 39 39 40 40 39 38 38 38 37 37 36 35 35 35 35 34 33 31 29 26 22 20 20 20 18 19 22 19 15 16 17 16 15 15 16 17 17 17 17 17
22 23 24 25 26 26 27 28 29 31 33 34 35 35 35 35 35 35 35 35 35 34 34 34 34 35 36 37 37 37 36 34 33 33 34 35 35 35 36 36 37 38 39 39 39 39 39 39 39 38 38 39 38 37 37 36 35 34 34 34 34 32 29 27 26 25 25 24 23 21 19 19 18 15 15 16 16 15 16 16 16 17 17 16 16
24 24 24 24 26 27 28 29 30 31 32 33 34 34 35 35 35 35 34 34 35 36 36 36 35 35 36 37 38 38 37 35 34 34 34 35 35 35 35 35 35 36 37 37 37 37 38 39 38 38 38 38 38 38 36 35 34 34 34 34 32 30 28 25 25 25 24 22 20 20 20 18 16 16 16 16 16 15 15 15 16 16 15 14 14
25 25 24 24 27 28 29 29 30 31 32 32 33 34 34 35 35 34 34 34 36 36 37 36 35 35 35 36 37 37 37 36 36 35 35 35 35 35 34 34 34 35 36 36 37 37 37 38 38 37 38 38 37 37 36 35 34 33 32 32 31 30 28 27 26 23 21 19 18 18 19 18 16 16 15 15 16 15 15 16 15 14 13 12 13
26 25 25 26 28 29 29 30 30 31 32 32 33 34 34 34 34 33 33 35 36 36 36 36 36 35 36 36 37 37 38 38 38 37 36 35 35 35 34 34 34 35 36 36 36 37 37 37 37 36 36 36 35 35 35 35 34 33 33 32 31 30 29 28 26 23 21 20 19 19 18 18 18 18 16 17 17 15 13 13 14 13 12 13 13
28 27 27 28 29 30 30 31 30 30 31 32 33 33 33 33 32 32 33 34 35 36 36 36 36 37 36 36 37 38 39 39 39 39 38 37 36 35 34 35 35 35 35 35 35 36 36 36 35 35 34 34 33 33 34 34 34 34 34 34 33 33 32 29 27 26 25 24 22 21 19 18 19 20 19 17 15 13 12 12 12 12 11 12 13
28 28 28 29 29 30 31 32 31 31 31 31 32 32 32 31 31 32 33 33 34 35 35 36 37 37 37 37 37 39 40 40 39 39 39 38 37 35 35 35 35 35 34 34 34 34 34 34 34 33 33 33 32 32 32 32 31 31 32 33 34 35 35 32 30 29 28 25 24 23 21 19 19 19 18 15 13 13 13 13 12 11 11 10 10
29 29 29 28 29 29 30 31 31 31 31 31 31 31 31 31 31 32 33 33 33 33 34 36 37 37 37 38 38 39 40 40 39 39 39 39 37 36 35 35 35 35 34 33 33 33 33 33 33 32 32 31 31 30 30 29 29 29 29 30 32 33 32 30 29 32 32 28 25 23 22 19 18 17 17 16 15 14 14 13 13 13 12 11 10
30 30 29 28 29 29 29 30 31 31 31 30 30 29 29 30 31 32 32 32 32 32 34 36 37 37 37 38 39 40 40 39 39 39 39 38 37 36 36 35 34 34 34 33 32 32 32 32 31 30 30 29 28 29 28 28 28 27 26 26 28 28 27 28 31 34 33 29 25 23 21 19 17 17 16 16 15 16 16 15 15 13 10 10 10
31 31 31 30 30 30 29 30 30 31 31 30 29 29 29 30 31 31 31 31 31 33 34 35 36 37 38 39 39 40 40 39 38 37 37 37 36 36 35 35 34 33 33 32 32 32 32 32 30 29 29 28 27 28 28 29 28 26 24 25 26 27 27 29 30 28 24 22 21 19 18 17 16 16 16 16 16 17 17 16 13 11 9 9 9
34 34 34 33 33 32 31 31 32 31 31 30 29 29 29 30 30 30 30 31 32 33 34 35 37 37 38 38 39 40 40 39 37 36 36 36 35 34 34 34 33 33 32 31 31 31 32 31 30 30 29 28 28 28 29 29 29 28 27 26 27 26 25 25 25 22 19 18 17 16 16 16 16 15 15 16 15 14 13 11 9 7 7 8 9
34 35 35 36 35 34 34 34 34 34 32 31 30 30 30 31 31 30 30 31 32 33 34 35 36 37 37 37 38 40 40 37 36 35 35 34 33 32 32 32 32 31 31 30 30 30 30 30 29 29 28 28 29 29 29 29 29 29 28 27 27 26 24 22 21 20 18 18 17 15 15 15 16 15 14 14 13 11 9 8 8 7 8 9 10
33 34 36 36 36 36 35 35 36 35 34 32 32 32 32 32 31 30 30 31 32 33 34 35 36 36 37 37 37 39 39 37 35 34 33 32 32 31 30 30 30 30 30 29 29 29 29 29 28 28 28 28 28 28 29 30 29 29 29 30 29 27 24 22 20 18 17 17 16 16 16 15 15 14 12 11 11 10 10 10 9 9 9 9 8
33 34 36 36 36 36 35 35 35 36 35 34 33 33 33 32 31 30 30 31 33 33 33 34 35 36 36 37 37 38 38 36 33 33 33 31 30 30 29 29 29 29 28 27 27 27 27 27 27 27 28 27 27 29 30 31 32 33 34 33 30 27 26 24 21 19 18 17 16 16 15 14 12 11 11 10 10 9 10 11 10 10 10 9 8
33 35 36 36 36 36 35 35 34 34 35 34 33 33 33 32 31 30 29 30 32 33 32 32 34 35 35 36 36 36 36 34 32 32 32 31 30 29 29 28 27 26 26 25 25 25 25 25 25 26 26 26 27 30 32 33 34 36 36 33 30 28 27 26 24 21 19 18 17 16 14 13 12 12 12 12 12 11 10 9 10 11 11 10 9
34 35 36 36 36 36 35 34 34 33 34 34 34 33 32 31 30 30 30 30 31 32 31 31 33 34 34 34 34 34 34 33 31 31 31 30 29 28 28 28 27 25 25 25 25 23 23 23 23 24 25 25 27 30 32 33 34 35 35 34 32 30 28 26 23 21 19 18 17 16 15 15 14 15 15 14 14 12 11 10 11 12 11 10 9
34 35 36 37 38 37 36 34 33 33 32 32 33 33 32 31 30 30 29 29 29 30 31 31 31 33 32 32 32 32 31 31 31 31 30 29 28 27 29 29 28 27 26 26 25 24 23 23 24 24 24 24 26 29 32 34 34 34 35 35 33 29 26 25 22 20 18 18 17 17 17 16 16 15 14 14 13 13 12 12 12 12 11 10 9
35 36 37 38 38 38 37 34 32 31 31 31 32 33 32 30 30 29 29 28 28 29 30 29 29 31 30 29 29 30 29 29 30 29 29 27 26 27 29 31 30 28 26 24 24 24 24 24 25 25 25 26 26 29 33 35 34 35 36 34 30 25 23 23 22 20 19 18 19 19 19 17 16 15 14 14 14 13 12 11 10 9 9 9 10
36 36 37 38 38 38 37 35 33 31 30 29 30 32 32 29 28 28 27 27 27 28 28 27 26 27 27 27 27 28 28 28 28 28 27 26 25 26 28 30 30 28 27 25 25 24 24 24 25 25 25 26 27 29 33 35 34 34 34 31 25 22 22 22 22 22 21 20 20 21 20 18 17 16 15 14 13 12 11 10 9 9 9 9 9
36 37 37 37 38 37 36 35 33 32 30 29 29 30 30 29 28 27 26 26 26 27 26 25 24 25 25 25 26 26 27 27 27 27 26 25 25 26 29 30 29 28 27 26 25 24 24 24 24 24 24 25 26 29 32 33 33 33 31 27 22 21 22 23 23 23 22 22 21 20 20 19 18 16 15 13 12 12 11 10 10 9 9 8 8
36 37 37 37 37 36 35 35 33 31 30 29 29 30 29 28 27 26 26 25 26 26 25 24 24 24 24 24 25 26 26 26 26 26 24 23 25 27 29 30 29 27 26 25 24 24 24 24 24 23 23 25 28 30 31 32 32 30 27 24 23 22 23 23 23 23 22 22 21 20 20 19 17 14 14 13 13 13 12 11 9 8 8 8 8
35 36 36 37 37 36 35 35 34 32 30 28 29 29 29 27 27 26 25 25 26 26 25 23 23 23 23 23 23 24 25 26 26 26 24 23 24 25 27 27 27 25 24 22 22 22 23 24 25 25 26 28 30 31 31 32 30 27 25 24 23 22 22 22 22 22 22 21 20 20 19 17 15 14 14 14 14 14 12 10 9 8 8 9 9
34 35 36 36 37 36 35 36 35 33 30 29 28 29 29 27 27 27 26 25 25 24 24 23 22 22 22 22 23 23 24 25 25 24 24 23 23 24 25 25 24 23 22 21 21 22 23 24 25 26 29 31 30 30 30 29 27 25 24 24 22 21 20 20 19 19 20 19 19 18 17 16 16 17 16 15 14 13 11 10 10 9 9 10 11
33 35 37 36 36 36 34 34 34 33 31 29 28 29 29 29 29 30 29 28 27 26 25 25 25 24 24 23 22 22 22 23 24 25 25 25 25 25 25 26 25 25 25 24 23 24 24 24 26 29 31 31 29 28 28 27 25 25 26 24 22 20 19 18 17 17 17 17 18 18 17 18 19 18 16 15 14 12 12 12 11 10 11 12 12
34 36 37 35 35 35 34 33 33 33 32 31 29 30 30 30 31 33 33 30 29 29 28 28 28 28 27 25 23 21 21 24 27 28 28 28 29 28 27 28 28 27 27 26 25 24 24 26 27 30 31 30 28 28 29 28 26 26 26 24 22 21 20 20 20 19 18 18 19 20 20 20 19 17 15 14 13 13 14 13 12 12 13 14 14
34 35 35 34 34 34 33 33 33 32 32 32 31 31 31 30 31 33 33 31 30 30 30 29 28 27 26 26 25 23 23 24 25 26 26 26 27 27 26 26 26 26 26 26 26 25 25 25 26 28 29 28 28 28 29 29 28 26 25 24 23 22 22 21 21 19 18 19 20 21 21 20 18 17 15 14 14 14 14 14 14 14 14 14 15
31 33 33 32 33 33 32 33 33 31 31 32 30 30 30 30 30 31 31 30 29 29 30 30 29 27 26 25 25 24 24 22 21 22 24 24 24 25 24 24 25 25 26 27 27 25 25 25 25 26 27 27 27 28 29 29 29 27 26 24 23 23 23 22 20 20 20 20 20 20 19 18 17 16 15 15 15 14 14 15 15 15 15 15 16
30 32 33 32 32 32 32 32 31 30 30 30 29 27 26 26 27 27 28 28 28 28 28 28 28 27 25 24 24 24 24 22 20 20 23 24 25 26 25 24 24 24 26 27 26 24 24 25 24 25 26 26 26 28 29 29 29 28 27 26 24 23 23 22 21 21 20 20 20 19 17 16 16 16 16 16 15 16 16 16 16 16 16 16 16
31 32 34 33 32 31 31 30 30 29 29 28 27 26 25 23 22 23 23 24 24 25 25 25 26 25 24 23 23 23 24 23 20 20 23 24 24 25 24 23 24 24 26 26 24 22 23 24 23 25 27 26 27 29 29 29 30 29 28 27 26 25 23 22 21 20 19 18 17 17 16 15 16 16 16 16 16 17 18 18 17 16 16 16 15
34 35 35 34 32 32 32 31 29 29 28 27 26 26 25 25 23 21 19 18 17 19 21 22 23 23 22 21 21 22 22 21 19 20 23 24 23 24 23 22 23 25 26 26 23 22 22 23 24 25 27 27 28 30 30 29 29 28 27 26 26 25 23 22 21 19 18 17 16 15 15 16 16 16 16 16 17 18 18 18 18 17 16 16 15
35 36 36 34 32 32 32 31 30 29 28 27 26 26 26 25 24 22 20 17 16 17 19 19 20 20 19 19 18 18 19 18 17 20 23 23 22 22 22 23 23 25 26 26 25 24 25 25 25 26 28 28 29 30 29 28 27 27 27 26 25 25 24 22 21 19 18 17 16 15 15 16 16 16 16 17 18 18 18 18 18 17 17 16 15
33 34 34 33 31 30 31 31 29 29 29 28 27 27 26 25 24 23 22 20 19 18 18 18 17 17 16 16 15 15 16 16 17 20 23 23 23 23 23 22 21 21 22 23 25 26 26 27 27 28 28 28 28 28 27 27 26 26 26 26 26 25 23 22 21 20 18 17 16 15 15 15 16 16 17 17 17 17 17 17 16 16 16 15 14
33 32 33 32 30 30 31 31 29 30 30 29 27 26 25 25 24 23 21 20 19 18 16 15 15 15 15 15 15 16 16 17 19 22 22 22 24 24 22 19 17 17 19 20 22 24 25 25 27 28 28 27 27 26 25 24 25 25 25 24 24 23 22 21 20 19 18 17 16 15 15 16 16 16 17 17 16 16 16 16 15 15 15 15 14
35 33 33 33 32 31 31 30 29 29 28 28 27 26 25 25 24 23 21 20 19 17 16 16 16 17 17 17 17 18 18 19 21 22 23 23 25 25 23 19 16 17 19 20 21 22 23 23 24 25 26 25 25 24 24 24 25 25 24 23 21 20 19 19 18 17 17 16 15 15 15 15 15 15 15 15 15 15 15 15 16 16 16 15 15
33 34 35 34 33 32 31 30 29 27 26 26 26 25 24 24 22 22 21 20 18 17 17 16 17 18 19 19 20 21 22 23 24 25 25 26 26 25 25 23 19 19 21 21 21 21 21 21 21 22 23 23 23 24 24 24 24 23 22 21 21 19 19 19 18 17 16 16 15 15 15 15 14 14 14 15 15 15 15 15 16 16 16 15 15
32 34 35 33 31 30 30 29 29 27 26 26 25 24 24 23 23 22 21 20 19 18 18 18 19 19 20 23 25 26 25 25 25 25 26 26 25 25 26 26 24 22 23 23 23 22 22 22 21 21 22 22 22 22 22 22 22 21 21 21 21 20 20 19 18 16 16 16 16 15 15 14 13 14 15 15 15 14 15 15 16 16 15 15 14
33 33 34 33 31 30 30 29 29 28 26 26 25 24 24 24 24 23 22 21 20 19 19 19 19 20 21 23 25 26 25 24 24 25 25 25 24 24 26 26 25 24 23 23 23 22 22 21 21 21 21 21 20 20 20 20 20 21 21 20 20 19 18 17 16 16 15 16 15 14 14 14 14 15 15 15 14 14 15 15 15 15 15 14 14
32 31 31 31 30 29 28 28 28 27 26 26 26 25 25 24 23 23 22 22 21 20 19 18 18 19 20 21 21 22 23 23 24 25 24 24 23 23 23 24 24 23 23 23 22 21 21 20 20 19 19 19 20 20 21 21 21 21 20 19 18 17 16 16 15 15 15 15 14 14 14 14 15 15 14 14 14 14 15 15 16 16 15 15 14
31 30 30 30 30 29 28 28 27 26 26 26 26 26 25 24 24 24 23 22 22 21 20 20 19 20 20 20 20 21 21 22 23 24 24 23 23 22 21 21 21 21 20 20 19 19 19 19 18 18 18 18 19 20 20 19 19 19 18 17 16 15 15 15 15 15 15 15 14 14 14 14 15 14 14 14 15 15 16 16 16 16 15 15 14
30 29 29 29 30 29 29 29 28 27 26 26 26 26 26 24 24 24 23 22 22 22 22 22 22 22 21 20 21 21 21 21 22 23 23 22 22 21 20 19 19 19 18 18 18 18 18 18 18 19 19 18 17 17 16 15 15 15 15 15 15 15 15 15 15 14 14 14 14 14 14 15 15 14 14 15 15 16 16 17 17 16 16 15 15
30 28 28 27 27 27 27 27 27 27 27 25 24 24 25 24 24 23 23 23 23 23 24 24 24 24 23 22 22 22 22 22 22 22 22 21 21 21 20 19 18 17 17 17 18 18 17 17 18 19 19 18 17 17 16 15 14 14 13 13 13 13 13 12 12 12 12 13 13 14 14 14 15 15 15 15 16 16 17 17 17 16 16 16 16
29 28 27 26 26 26 26 25 26 26 25 24 23 22 23 24 24 24 24 25 25 26 26 26 27 26 25 24 23 24 24 23 23 23 22 22 21 21 20 19 18 17 18 18 19 18 17 17 17 17 18 18 17 17 16 15 14 13 13 12 12 12 11 11 12 13 13 14 14 14 14 14 14 15 15 15 16 17 17 17 16 16 16 16 16
28 28 27 26 25 26 26 26 25 25 24 23 22 22 22 22 23 23 24 25 26 26 27 27 28 28 27 26 26 26 26 25 24 24 23 22 21 21 20 19 19 19 20 20 20 19 18 17 17 17 16 16 16 15 15 14 13 12 12 11 12 12 12 13 13 13 13 14 14 14 14 14 14 15 15 16 17 17 17 16 16 16 16 16 16
29 27 26 26 25 26 25 24 23 23 22 21 21 21 21 21 22 23 24 25 26 26 26 26 28 28 28 28 28 28 27 26 24 24 23 23 22 21 21 21 21 21 21 21 20 19 18 17 17 16 16 15 14 14 13 13 12 12 11 11 12 12 13 13 13 13 13 13 13 13 14 14 14 15 16 16 17 17 17 16 16 16 16 16 17
32 28 25 25 25 24 24 23 22 21 20 20 19 19 19 19 20 21 22 23 24 24 24 24 25 25 25 26 26 26 25 25 24 24 23 23 23 22 22 22 21 21 20 20 19 19 18 17 16 15 14 14 13 13 12 12 12 12 12 12 13 13 13 12 13 13 13 13 13 14 14 15 15 16 16 17 17 17 16 16 16 15 16 16 17
30 27 25 25 24 24 23 22 21 19 18 17 17 16 17 18 18 19 20 21 21 21 21 22 23 23 24 26 26 25 25 25 25 25 25 24 24 23 23 22 21 21 20 19 18 18 17 16 15 14 14 13 13 12 12 12 12 12 13 13 12 12 12 12 13 13 13 13 13 14 15 15 16 16 17 17 17 17 17 16 16 16 16 17 17
24 23 23 22 22 21 21 20 18 17 16 15 15 16 17 17 18 19 20 21 21 21 22 22 23 24 25 26 26 25 25 25 25 25 25 25 24 23 22 22 21 21 20 19 18 17 16 15 14 14 13 13 13 12 12 12 12 12 12 12 12 12 12 12 13 13 13 14 14 15 16 16 16 17 17 17 17 17 16 16 16 16 17 17 16
Wind_Direction
289 289 288 283 277 272 268 267 266 265 264 263 263 263 264 264 264 264 265 264 263 262 261 260 259 258 257 256 251 249 253 255 255 255 254 252 250 249 248 246 243 242 241 240 239 239 238 237 237 237 237 236 236 237 236 235 235 232 231 229 225 223 218 213 214 220 227 235 240 238 227 218 220 221 221 224 223 220 219 220 221 223 224 229 234
292 292 290 286 282 278 273 270 268 266 264 264 265 265 265 264 264 264 264 264 263 262 261 260 259 257 255 254 250 248 252 255 255 256 256 255 253 251 249 248 247 245 243 242 241 240 239 238 238 239 237 236 236 236 236 235 233 230 228 227 224 222 218 214 213 208 213 226 227 226 217 210 212 213 211 212 209 205 206 207 210 216 221 230 236
294 295 292 289 287 283 278 273 268 266 264 264 265 266 266 265 264 263 264 264 264 263 262 260 258 256 254 253 250 248 251 254 255 254 255 256 256 255 254 251 248 246 244 243 242 241 240 238 238 239 237 235 235 235 236 235 232 229 228 227 224 222 219 216 213 206 206 215 218 216 207 202 205 203 196 195 194 194 198 202 209 219 225 234 242
297 296 295 294 291 285 281 277 271 267 266 265 265 266 267 265 264 263 263 263 263 262 261 259 257 255 253 252 250 248 250 253 254 253 254 256 255 256 256 252 248 246 244 244 243 242 240 238 239 239 235 234 235 234 233 233 232 229 227 226 224 222 220 216 212 209 209 207 207 209 203 197 198 196 187 184 185 189 196 205 214 224 231 239 248
305 301 299 296 293 288 284 281 275 272 271 270 269 269 268 266 264 263 262 261 261 261 260 258 255 254 252 251 250 248 250 254 255 253 254 256 256 257 256 252 249 247 246 245 244 243 241 241 241 240 235 233 233 232 231 230 230 228 226 224 222 221 219 214 210 210 213 206 196 196 197 192 189 187 185 186 187 192 203 212 221 230 237 245 252
319 311 304 299 296 292 289 285 281 280 278 277 275 272 270 268 266 264 263 261 261 260 259 257 255 254 253 253 252 252 252 254 254 253 254 256 257 258 256 252 250 249 247 247 246 244 244 244 243 240 236 233 231 231 230 229 227 225 223 222 221 218 214 210 208 209 211 203 190 185 188 187 182 179 185 194 198 202 210 218 228 237 243 249 252
329 321 313 305 300 298 296 293 290 287 285 283 280 276 273 271 268 267 264 262 261 260 258 256 255 254 254 254 254 254 254 254 253 252 253 255 257 257 254 251 251 250 250 249 249 248 247 246 244 240 237 236 233 231 229 227 225 223 222 221 217 211 206 203 201 202 200 193 187 184 181 180 183 184 188 198 204 209 214 222 232 239 244 248 248
335 330 322 313 308 306 304 301 297 293 290 287 283 280 277 274 271 268 265 262 260 259 258 258 256 255 255 255 254 254 253 252 252 251 252 254 255 254 253 252 252 252 253 253 252 251 250 248 245 242 241 240 237 234 232 227 223 220 220 217 210 202 196 191 191 193 192 189 188 187 179 177 184 186 188 197 204 211 220 227 234 237 240 246 253
337 332 325 319 316 314 310 306 301 298 294 291 287 284 280 277 274 269 266 263 261 260 258 257 256 255 254 253 253 251 250 250 251 251 251 252 253 253 253 254 255 255 255 255 254 252 251 249 246 244 243 242 240 237 235 232 227 221 214 209 202 193 186 183 185 186 186 187 186 182 178 180 185 187 192 202 208 213 219 224 230 234 240 252 261
336 331 324 322 321 318 315 311 308 303 298 295 292 288 284 280 276 271 268 265 262 260 258 255 254 254 254 253 251 249 248 249 251 251 250 250 251 252 254 255 255 254 253 253 252 251 249 247 246 244 243 241 239 236 234 233 230 225 218 209 198 189 182 181 185 186 185 184 182 178 176 183 192 196 202 210 214 214 213 217 224 230 241 256 266
337 331 326 325 324 321 319 316 313 309 304 300 296 291 287 282 277 274 270 267 264 261 257 254 254 253 253 252 250 249 248 249 250 251 251 250 249 251 253 254 253 251 250 249 249 249 248 245 244 242 240 238 235 232 230 227 222 219 216 209 199 195 191 186 183 185 186 183 180 181 183 190 199 204 208 213 212 208 210 215 220 223 229 244 262
337 332 329 328 326 325 322 319 315 312 309 305 300 295 289 283 279 275 271 268 265 261 257 255 254 253 253 252 250 250 250 250 250 251 251 250 250 251 252 252 251 249 247 247 247 247 246 245 242 240 238 235 232 227 223 219 214 212 212 207 201 201 202 199 192 189 189 184 179 183 190 194 201 207 209 210 207 205 208 212 216 220 223 235 252
337 333 333 332 331 329 326 321 317 315 313 309 303 297 289 283 279 276 274 272 267 262 259 257 255 254 252 251 251 251 251 251 251 251 251 250 250 250 249 248 247 246 245 245 244 244 244 242 239 237 235 232 227 222 216 211 209 208 209 205 200 199 205 210 206 197 192 186 182 187 193 196 202 208 211 212 209 204 202 207 214 219 227 240 253
338 337 336 336 335 334 331 326 321 317 315 311 305 297 290 285 281 278 275 271 266 262 260 258 256 254 252 251 251 252 251 251 251 250 250 251 249 248 247 246 244 244 245 244 243 241 240 238 235 232 230 226 220 216 212 206 201 198 197 196 196 199 202 204 200 193 188 186 184 189 195 200 206 211 214 214 211 205 203 206 213 220 232 248 260
340 340 338 337 336 334 332 328 323 319 316 311 305 298 292 287 284 280 276 271 266 264 261 259 257 255 253 251 251 251 251 251 250 250 250 250 250 248 246 244 242 243 244 244 243 241 239 237 234 230 226 222 216 212 207 201 194 190 187 188 191 193 192 190 186 182 181 184 187 191 196 201 207 210 209 209 208 207 206 207 212 220 235 250 262
341 341 338 336 334 332 330 327 323 320 317 312 306 300 295 291 287 283 278 273 268 264 261 259 257 255 253 251 250 250 251 250 249 249 249 249 248 246 242 240 239 240 241 242 241 240 239 236 232 228 224 219 215 210 204 197 190 183 179 180 181 181 179 179 179 179 180 183 188 195 199 202 206 208 207 204 202 197 191 195 208 221 235 249 259
339 337 334 333 331 329 327 325 321 319 316 312 306 303 299 295 291 286 279 273 269 265 262 260 258 255 254 251 249 250 251 250 249 248 247 247 245 241 238 236 236 237 239 239 238 238 237 234 230 226 222 217 212 205 197 192 185 179 176 177 176 174 172 174 175 177 183 188 192 199 205 204 202 202 199 194 191 187 185 196 213 219 226 239 252
335 332 330 329 327 326 324 322 318 315 313 309 306 304 300 296 293 287 280 275 271 269 266 263 261 257 254 252 251 251 251 251 249 248 247 244 242 239 235 233 233 234 234 235 235 235 234 231 228 224 220 215 207 197 193 190 184 180 179 176 172 171 172 173 176 179 185 191 197 202 203 198 190 186 186 185 190 198 202 207 212 213 220 234 249
330 327 326 325 324 322 322 320 316 312 310 307 306 303 300 297 293 288 281 276 273 271 268 264 262 259 256 254 252 251 251 251 249 248 248 244 241 237 233 229 228 228 228 228 228 228 227 225 223 221 219 213 202 194 194 191 185 182 180 175 172 175 177 178 181 185 189 194 198 196 188 181 178 181 185 186 191 202 209 211 212 215 226 239 249
327 325 323 322 321 320 320 318 315 311 308 307 305 302 299 296 292 287 281 277 273 270 266 263 261 260 257 254 252 250 250 250 249 248 248 245 240 235 229 225 222 221 221 220 218 218 218 217 215 213 213 208 199 194 194 190 185 183 183 181 180 180 180 182 187 192 195 196 193 186 178 177 182 187 191 192 196 206 215 220 223 226 229 233 236
327 325 323 321 319 319 319 317 314 310 307 306 304 300 298 294 290 285 281 276 271 267 264 260 259 258 256 253 251 250 248 248 248 248 247 245 240 233 226 223 221 218 216 215 213 211 209 207 205 205 207 205 198 193 192 190 188 188 189 189 187 183 182 185 189 193 196 193 185 179 177 180 185 190 197 201 206 214 220 225 230 231 229 228 231
328 326 323 321 319 318 317 316 312 308 305 304 301 298 297 294 289 284 278 273 267 263 261 258 255 256 255 251 249 248 247 247 247 246 245 243 239 233 227 224 221 217 212 209 208 206 204 203 201 201 202 199 193 190 191 190 191 192 193 190 187 184 185 188 188 188 187 182 177 176 178 182 187 192 199 204 210 218 223 224 227 228 234 241 245
328 325 322 320 318 317 315 314 310 306 302 300 297 295 294 291 286 281 275 269 264 260 257 254 251 251 251 248 246 245 244 245 245 243 242 239 235 232 229 224 221 218 213 209 207 203 202 201 199 198 196 193 191 191 190 190 192 193 190 186 183 183 187 187 185 182 179 176 176 179 182 187 192 196 203 208 213 217 217 217 222 232 245 254 259
326 322 320 317 315 314 314 312 308 303 300 298 293 289 289 286 282 277 270 264 260 257 254 250 245 245 245 244 243 242 242 242 241 240 238 235 230 227 224 222 221 219 215 212 209 204 203 202 199 195 193 191 190 190 189 191 192 190 185 182 182 182 182 182 180 178 176 177 181 185 188 193 197 201 208 212 210 208 210 217 228 237 246 258 275
321 318 317 314 312 312 311 310 306 302 298 294 288 285 283 280 275 271 265 258 254 252 251 247 241 240 241 241 241 240 240 239 237 235 234 230 225 222 220 219 219 218 214 212 210 210 210 207 200 195 192 188 186 187 189 189 188 185 181 182 182 180 179 179 178 178 179 183 189 191 192 196 203 209 211 208 206 209 214 219 228 240 249 262 279
316 315 314 313 312 310 308 307 306 302 298 292 286 282 278 273 268 265 259 253 249 247 247 244 240 238 239 239 240 240 238 236 233 231 227 222 218 217 216 215 215 215 214 213 213 214 212 206 198 191 188 184 183 184 185 184 182 180 180 182 183 181 182 182 182 184 188 192 193 193 194 201 207 205 201 202 205 210 215 220 231 245 254 264 273
313 312 311 310 310 308 306 304 303 301 296 291 285 281 275 268 263 258 252 246 244 242 242 241 238 236 238 239 239 238 236 233 229 225 219 213 209 208 208 207 206 206 207 208 208 206 203 200 194 187 183 182 184 184 182 180 177 174 176 182 186 187 188 191 193 196 198 197 195 197 200 204 201 195 195 200 204 208 218 228 234 241 254 267 268
312 309 308 308 307 306 304 302 300 297 293 289 283 278 274 267 260 256 252 246 242 239 238 237 235 235 237 238 236 234 233 230 226 221 215 209 204 202 201 201 199 198 198 199 197 194 192 190 187 183 181 182 182 179 177 176 176 175 178 184 188 189 191 194 196 199 200 199 197 197 197 194 192 192 196 199 203 214 225 227 230 243 257 260 253
311 308 307 306 304 304 304 301 298 294 289 286 282 277 273 268 263 262 259 253 248 245 242 240 240 239 239 237 234 230 230 232 229 224 218 211 205 201 199 198 196 194 193 191 187 183 183 181 180 179 179 177 173 169 169 170 173 177 182 184 185 187 189 191 193 196 199 198 195 191 188 187 189 192 197 201 210 220 224 226 237 251 252 246 244
309 305 304 304 302 303 303 300 297 293 288 284 281 279 276 270 265 264 263 259 253 249 246 245 245 244 242 240 239 236 236 240 237 227 217 211 207 202 199 198 194 189 186 185 180 176 176 177 177 176 175 172 167 165 166 168 170 174 179 182 185 188 190 194 197 197 195 193 190 187 185 186 190 195 203 210 214 216 223 236 246 247 242 241 246
303 301 301 300 300 301 299 297 295 291 286 282 278 276 276 274 268 263 262 260 256 250 247 246 245 245 244 243 242 240 240 244 243 227 214 208 204 200 196 195 193 188 184 180 177 175 175 176 176 175 175 173 170 168 168 170 172 174 177 180 186 190 192 194 194 192 189 186 186 187 189 193 198 204 210 214 217 224 235 242 241 238 240 245 251
299 298 298 297 297 296 294 292 291 288 284 280 275 270 270 271 270 266 260 258 256 252 248 246 245 246 247 245 244 242 239 241 240 227 213 205 201 198 196 194 191 188 184 181 178 176 177 176 175 175 175 175 174 173 173 174 176 178 179 181 186 191 193 191 188 187 186 184 185 190 197 203 208 212 214 218 225 233 235 234 232 236 241 245 249
300 297 296 296 296 295 292 289 286 282 279 275 271 265 261 259 264 266 262 259 257 254 251 248 245 246 247 246 245 243 239 238 234 221 209 203 199 197 194 191 187 185 184 182 180 177 177 177 176 176 177 178 178 177 178 179 181 183 185 186 187 188 189 188 187 187 188 189 193 198 202 207 212 213 217 224 230 231 230 231 234 237 240 242 245
301 298 296 295 293 291 289 286 282 279 276 271 265 261 257 253 254 258 258 254 250 248 247 245 243 242 242 242 243 241 236 233 227 214 204 199 195 192 189 187 186 187 186 184 180 178 178 178 179 180 181 182 182 181 181 183 185 186 187 187 186 185 185 186 188 190 191 195 201 204 205 210 215 218 223 228 230 230 231 233 236 238 239 240 242
300 297 295 293 289 285 284 282 279 276 272 267 262 258 255 253 250 249 247 244 239 239 238 235 234 235 234 234 234 230 226 224 216 205 200 196 192 188 184 182 184 185 185 184 183 182 182 181 182 184 185 184 184 184 184 186 187 187 186 185 184 183 184 186 189 192 195 200 205 207 209 215 222 227 231 231 230 231 233 235 237 240 240 239 239
298 295 293 291 288 284 281 279 275 271 268 264 261 257 254 251 247 244 243 240 238 239 237 232 228 226 223 223 220 214 214 213 203 197 196 192 186 182 179 179 182 182 180 183 185 185 185 186 185 185 186 186 186 187 188 189 189 189 189 187 186 185 186 189 192 195 199 204 208 213 218 223 228 231 231 232 233 235 237 239 239 239 239 237 237
297 294 291 290 288 285 282 278 273 268 264 260 257 254 251 248 245 241 238 236 234 234 231 225 217 209 207 211 209 203 203 199 191 189 189 182 177 178 178 178 180 179 178 183 185 184 185 186 186 185 186 187 188 190 191 192 191 190 190 190 189 189 190 193 196 199 202 207 213 220 226 229 231 231 230 231 233 233 235 237 238 236 236 235 234
295 293 291 289 288 285 281 278 273 267 260 255 250 247 244 244 241 236 233 230 227 224 219 212 205 198 196 197 195 193 190 184 181 184 184 178 177 181 182 182 183 182 181 185 187 185 185 186 188 188 189 191 192 193 193 192 190 190 189 188 189 192 195 196 200 206 211 217 223 229 231 231 230 232 232 231 232 233 234 235 234 233 232 231 232
297 296 294 292 288 283 279 276 271 265 256 249 244 239 237 237 235 231 229 224 217 212 208 205 202 199 193 187 183 181 179 178 180 184 184 183 185 186 184 184 188 189 189 191 193 194 194 193 194 195 196 196 196 194 192 190 188 188 189 189 190 193 197 200 205 212 218 224 226 227 229 230 231 232 233 232 233 234 235 235 234 233 234 235 237
299 297 295 293 289 283 279 274 269 261 252 245 240 234 232 231 229 227 224 218 210 204 201 200 202 200 194 185 179 176 176 178 181 182 182 184 187 185 184 185 188 189 191 194 197 200 200 198 196 195 194 194 193 191 190 190 189 188 190 192 193 196 201 208 215 220 222 223 225 226 229 232 231 231 231 232 234 235 235 237 238 238 239 241 242
295 293 292 292 289 284 279 274 267 260 252 246 240 233 230 229 227 224 220 215 209 202 198 199 201 199 193 185 179 176 177 178 179 181 182 183 184 183 183 186 188 189 191 193 195 198 198 194 192 190 189 190 192 192 191 191 190 190 192 194 198 204 210 215 219 220 220 222 226 230 233 233 231 231 232 233 234 236 236 238 240 240 241 243 243
292 290 290 290 288 284 280 275 269 262 253 246 239 233 231 228 224 219 216 212 208 201 194 194 194 190 186 182 179 179 179 176 175 178 180 182 183 183 184 186 190 192 194 194 195 196 194 191 190 191 192 193 194 192 190 190 192 194 198 201 206 210 212 213 214 217 221 226 230 232 232 231 231 232 234 235 235 237 238 240 242 242 243 244 245
290 288 288 288 286 283 279 276 273 265 254 245 239 235 231 226 220 216 213 209 205 197 188 184 182 179 178 180 181 180 177 173 171 173 175 176 179 181 182 185 189 191 192 194 195 196 195 195 196 196 196 196 195 193 193 195 198 200 203 205 207 209 210 212 216 220 224 228 229 228 228 230 231 233 234 235 238 240 242 243 244 244 245 247 249
290 288 287 286 284 282 279 276 273 266 257 249 242 235 229 222 216 212 208 203 198 192 185 179 176 174 175 178 180 179 174 171 170 170 170 171 173 175 177 182 185 186 189 191 192 195 199 202 200 195 192 193 195 196 198 201 202 204 206 206 208 212 215 218 223 226 227 227 226 226 228 230 232 235 237 239 241 242 243 244 246 246 247 249 252
290 288 286 284 283 281 278 275 272 266 258 249 240 232 224 218 211 206 202 197 191 186 182 178 176 176 177 178 178 176 173 172 172 171 170 171 173 174 177 181 184 189 193 193 193 194 196 196 193 188 186 188 191 193 196 199 201 205 209 211 214 217 220 221 222 223 222 222 223 225 228 231 234 238 242 243 244 246 247 248 250 249 249 251 254
290 288 285 282 280 279 277 274 271 266 257 245 235 226 219 213 208 203 198 193 188 183 180 177 176 178 179 178 177 175 174 174 174 175 175 175 176 177 180 183 187 191 191 187 185 185 184 184 185 186 187 189 191 194 198 202 204 206 210 211 212 213 213 213 215 216 216 219 221 223 227 232 236 240 243 245 247 249 250 251 252 252 253 254 258
290 288 285 281 279 278 276 273 269 264 254 242 232 223 215 209 205 199 195 191 187 183 180 177 176 178 180 179 179 178 177 176 178 178 178 179 180 181 184 186 185 183 179 177 178 180 181 183 186 189 190 193 195 198 201 203 204 206 207 208 210 213 213 214 216 218 218 221 223 225 229 233 236 240 243 246 247 249 252 253 254 256 257 258 261
289 286 283 281 279 277 275 273 268 260 251 239 229 221 214 207 200 195 191 188 185 183 181 178 177 178 179 180 180 180 177 177 178 179 180 181 181 181 182 181 178 176 175 176 179 182 184 186 188 189 191 194 197 199 201 203 204 206 209 210 212 215 215 215 218 219 220 222 226 228 231 235 238 240 244 246 249 252 255 256 258 260 261 262 264
292 285 281 280 280 277 275 274 268 258 249 238 227 217 208 201 195 190 187 184 182 181 180 177 175 175 176 176 176 175 174 174 175 175 176 176 176 175 175 175 174 175 178 180 181 183 185 186 188 190 192 196 198 200 203 205 205 207 209 211 212 214 215 216 220 222 224 227 230 232 235 239 241 243 246 249 252 255 257 258 260 261 261 263 265
294 286 282 282 282 280 278 275 267 257 247 235 221 208 198 192 188 185 181 178 176 176 176 174 172 173 175 175 172 171 171 172 173 172 172 172 172 172 173 174 175 176 178 180 181 183 185 187 190 192 194 197 200 202 204 205 205 207 208 211 213 216 219 221 225 229 231 233 237 239 241 244 245 247 250 252 254 255 257 258 260 261 261 262 263
302 296 291 288 285 282 279 273 263 252 240 226 212 200 191 185 181 179 176 173 172 172 172 171 172 176 177 174 171 169 169 170 170 170 170 171 172 173 174 175 176 177 178 179 181 184 187 190 193 195 197 199 201 202 203 204 206 208 211 215 219 224 228 230 234 237 239 240 242 244 245 246 248 250 253 254 255 256 258 259 259 260 261 261 261